AirNav  
 
 338 users online  

KACZ Henderson Field Airport
Wallace, North Carolina, USA

GOING TO WALLACE?


FAA INFORMATION EFFECTIVE 25 FEBRUARY 2021

Location

FAA Identifier: ACZ
Lat/Long: 34-43-04.3000N 078-00-14.0000W
34-43.071667N 078-00.233333W
34.7178611,-78.0038889
(estimated)
Elevation: 38.1 ft. / 11.6 m (surveyed)
Variation: 09W (2000)
From city: 1 mile SW of WALLACE, NC
Time zone: UTC -5 (UTC -4 during Daylight Saving Time)
Zip code: 28466

Airport Operations

Airport use: Open to the public
Activation date: 06/1954
Control tower: no
ARTCC: WASHINGTON CENTER
FSS: RALEIGH FLIGHT SERVICE STATION
NOTAMs facility: RDU (NOTAM-D service available)
Attendance: MON-SAT 0800-1700, ALL SUN 1300-1800
24 HR ACCESS TO PILOTS' LOUNGE - DOOR CODE ON FUEL RECEIPT.
Wind indicator: lighted
Segmented circle: yes
Lights: ACTVT MIRLS RWYS 9/27- CTAF. PAPIS OPR CONSLY.
Beacon: white-green (lighted land airport)
Operates sunset to sunrise.

Airport Communications

CTAF/UNICOM: 122.8
WILMINGTON APPROACH: 135.75
WILMINGTON DEPARTURE: 135.75
WX AWOS-3 at DPL (17 nm N): 120.675 (910-296-9688)
  • APCH/DEP SVC PRVDD BY WASHINGTON ARTCC ON FREQS 124.025/269.15 (WILMINGTON RCAG) WHEN WILMINGTON APCH CTL CLSD.

Nearby radio navigation aids

VOR radial/distance  VOR name  Freq  Var
ILMr351/22.9WILMINGTON VORTAC117.0007W

 
NDB name  Hdg/Dist  Freq  Var  ID
ELLAS270/14.926108WOA --- .-
CLINTON140/23.441209WCTZ -.-. - --..
ELIZABETHTOWN074/27.739808WTGQ - --. --.-
DIXON296/28.619808WDIW -.. .. .--
CAROLINA BEACH006/36.821609WCLB -.-. .-.. -...

Airport Services

Fuel available: 100LL JET-A1+
24 HR SELF SERVICE FUEL WITH CREDIT CARD.
Parking: tiedowns
Airframe service: MAJOR
Powerplant service: MAJOR
Bottled oxygen: NONE
Bulk oxygen: NONE

Runway Information

Runway 9/27

Dimensions: 4153 x 75 ft. / 1266 x 23 m
Surface: asphalt, in good condition
Weight bearing capacity: 
Single wheel: 12.5
Runway edge lights: medium intensity
RUNWAY 9  RUNWAY 27
Latitude: 34-43.042453N34-43.101515N
Longitude: 078-00.645852W077-59.819745W
Elevation: 37.9 ft.29.2 ft.
Traffic pattern: leftleft
Runway heading: 094 magnetic, 085 true274 magnetic, 265 true
Displaced threshold: 149 ft.151 ft.
Markings: nonprecision, in fair conditionnonprecision, in fair condition
Visual slope indicator: 2-light PAPI on left (3.10 degrees glide path)2-light PAPI on left (3.51 degrees glide path)
Touchdown point: yes, no lightsyes, no lights
Obstructions: 33 ft. pole, 784 ft. from runway, 36 ft. left of centerline, 17:1 slope to clear
APCH SLOPE 20:1 TO DSPLCD THLD.
78 ft. trees, 1661 ft. from runway, 195 ft. left of centerline, 18:1 slope to clear
APCH SLOPE 20:1 TO DSPLCD THR.

Airport Ownership and Management from official FAA records

Ownership: Publicly-owned
Owner: TOWN OF WALLACE
316 E. MURRAY STREET, PO BOX 849
WALLACE, NC 28466
Phone 910-285-4136
Manager: GAGE KING
250 HENDERSON FIELD ROAD
WALLACE, NC 28466
Phone 910-271-8955
FBO (DAY): 910-285-6642. AFT HRS: 910-271-8955. ALTN (POLICE DEPT): 910-285-2126.

Airport Operational Statistics

Aircraft based on the field: 21
Single engine airplanes: 20
Multi engine airplanes: 1
    
Aircraft operations: avg 46/day *
59% transient general aviation
27% local general aviation
14% military
* for 12-month period ending 22 June 2018

Additional Remarks

5' DITCH 135' RIGHT OF CNTRLN RWY 09.
7' DITCH 140' LEFT OF CNTRLN RWY 27.
RWY 27 SAFETY AREA HAS 20' DEPRESSIONS/CREEK 160'FR THR BOTH SIDES C/L.
MIL ACFT LIMIT DELAY ON RY TO AVOID DAMAGE TO RY SURFACES
NOISE ABATEMENT PROCEDURES IN EFFECT, CALL AMGR 910-271-8955
HENDERSON FIELD ARPT CLSD TO TOUCH & GO/PRACTICE APPROACHES 2100-0600 LCL DLY.
ARPT CLSD TO MIL ACFT EXCEPT 1 HR PPR
FOR CD CTC WILMINGTON APCH AT 910-815-4676, OR WHEN APCH CLSD CTC WASHINGTON ARTCC AT 703-771-3587.

Instrument Procedures

NOTE: All procedures below are presented as PDF files. If you need a reader for these files, you should download the free Adobe Reader.

NOT FOR NAVIGATION. Please procure official charts for flight.
FAA instrument procedures published for use from 25 February 2021 at 0901Z to 25 March 2021 at 0900Z.

 
IAPs - Instrument Approach Procedures
RNAV (GPS) RWY 09   download (243KB)
RNAV (GPS) RWY 27   download (227KB)
NOTE: Special Take-Off Minimums/Departure Procedures apply   download (141KB)

Other nearby airports with instrument procedures:

KDPL - Duplin County Airport (17 nm N)
KOAJ - Albert J Ellis Airport (20 nm E)
KCTZ - Clinton-Sampson County Airport (24 nm NW)
KILM - Wilmington International Airport (27 nm S)
KNCA - New River Marine Corps Air Station (H) (McCutcheon Field) (28 nm E)
 
Loc | Ops | Rwys | IFR | FBO | Links
Com | Nav | Svcs | Stats | Notes
Area around KACZ (Henderson Field Airport)
 
Road maps at: MapQuest Bing Google
 
Aerial photo
WARNING: Photo may not be current or correct
Aerial photo of KACZ (Henderson Field Airport)
Photo by Richard Verdier
Photo taken 23-Oct-2014
looking west.

Do you have a better or more recent aerial photo of Henderson Field Airport that you would like to share? If so, please send us your photo.

 
Sectional chart

 
Airport distance calculator
Flying to Henderson Field Airport? Find the distance to fly.

From to KACZ

Sunrise and sunset
Times for 03-Mar-2021
 Local
(UTC-5)
 Zulu
(UTC)
Morning civil twilight06:1411:14
Sunrise06:4011:40
Sunset18:0823:08
Evening civil twilight18:3423:34

Current date and time
Zulu (UTC)  03-Mar-2021 09:55:47
Local (UTC-5)  03-Mar-2021 04:55:47
 
METAR
KDPL 
17nm N 
030935Z AUTO 04003KT 10SM SCT030 SCT060 OVC100 06/01 A3004 RMK AO2
KOAJ 
20nm E 
030856Z AUTO 03007KT 10SM OVC035 06/01 A3005 RMK AO2 SLP177 T00610011 56031
KCTZ 
24nm NW 
030935Z AUTO 02006KT 10SM SCT031 SCT040 SCT060 06/02 A3004 RMK AO2 T00600019
KNCA 
27nm E 
030856Z AUTO 02007KT 10SM BKN040 OVC095 07/M01 A3003 RMK AO2 SLP171 T00671011 58030
KILM 
28nm S 
030853Z 02006KT 10SM -RA OVC048 06/02 A3003 RMK AO2 RAB27 SLP167 P0000 60000 T00610022 56028
KEYF 
29nm W 
030935Z AUTO 03005KT 10SM -RA BKN020 OVC028 05/02 A3002 RMK AO2 T00500018
TAF
KOAJ 
20nm E 
021735Z 0218/0318 03010KT P6SM BKN250 FM022200 VRB03KT P6SM BKN250 FM031300 02006KT P6SM SCT060 OVC250 AMD LTD TO CLD VIS AND WIND
NOTAMs
Click for the latest NOTAMs
NOTAMs are issued by the DoD/FAA and will open in a separate window not controlled by AirNav.

 

 
 

FBO, Fuel Providers, and Aircraft Ground Support

  
 Business Name 
 
 Contact 
 
 Services / Description 
 
Fuel Prices
 
Comments
  
Henderson Field Airport 910-285-6642
910-271-8955
[web site]
[email]
Airport management, Aviation fuel, Aircraft parking (ramp or tiedown), Passenger terminal and lounge, Aircraft maintenance, Rental cars, Courtesy transportation, ...

More info about Henderson Field Airport
Phillips 66
100LL Jet A
AS $3.70 --- 
FS --- $4.30 
 Updated 18-Feb-2021
 
   write
AS=Assisted/Self Service
FS=Full service
Update Fuel Prices
 

Would you like to see your business listed on this page?

 If your business provides an interesting product or service to pilots, flight crews, aircraft, or users of the Henderson Field Airport, you should consider listing it here.  To start the listing process, click on the button below
 
Add a business
 

Other Pages about Henderson Field Airport

www.wallacenc.gov/index.aspx?NID=859
 
Update a link
 
Copyright © AirNav, LLC. All rights reserved. Privacy Policy  Contact